Tracking 30166 objects as of 22-Jan-2025
HD Live streaming from Space Station
objects crossing your sky now

STARLINK-2637

Track STARLINK-2637 now!
10-day predictions
STARLINK-2637 is classified as:


NORAD ID: 48356
Int'l Code: 2021-038D
Perigee: 553.2 km
Apogee: 555.4 km
Inclination: 53.1 °
Period: 95.6 minutes
Semi major axis: 6925 km
RCS: Unknown
Launch date: May 4, 2021
Source: United States (US)
Launch site: AIR FORCE EASTERN TEST RANGE (AFETR)
Your satellite tracking list
Your tracking list is empty




NASA's NSSDC Master Catalog

Two Line Element Set (TLE):
1 48356U 21038D   25022.50571495  .00009925  00000-0  68392-3 0  9993
2 48356  53.0551  47.4936 0001624  91.0451 269.0724 15.06416777205059
Source of the keplerian elements: AFSPC